This is the latest recevied weather packets stored in our database for station/object 7L2IWN-13. If no packets are shown the sender has not sent any weather packets the latest 10 day(s).
| Time | Temp. | Humidity | Pressure | Rain* | Wind** | Luminosity | Snow |
|---|---|---|---|---|---|---|---|
| 1777955418 | 22.22° C | 33% | 1017.1 hPa | 0 mm | - | - | - |
| 1777954698 | 21.67° C | 31% | 1017.4 hPa | 0 mm | - | - | - |
| 1777953979 | 21.67° C | 30% | 1017.2 hPa | 0 mm | - | - | - |
| 1777953258 | 21.67° C | 29% | 1017.2 hPa | 0 mm | - | - | - |
| 1777951819 | 21.11° C | 28% | 1017.3 hPa | 0 mm | - | - | - |
| 1777951098 | 20.56° C | 29% | 1017.4 hPa | 0 mm | - | - | - |
| 1777949658 | 20.56° C | 28% | 1017.4 hPa | 0 mm | - | - | - |
| 1777948937 | 20° C | 28% | 1017.4 hPa | 0 mm | - | - | - |
| 1777948218 | 20.56° C | 28% | 1017.5 hPa | 0 mm | - | - | - |
| 1777947499 | 20° C | 29% | 1017.9 hPa | 0 mm | - | - | - |
| 1777946778 | 20° C | 30% | 1018 hPa | 0 mm | - | - | - |
| 1777946059 | 18.89° C | 30% | 1017.6 hPa | 0 mm | - | - | - |
| 1777945337 | 19.44° C | 31% | 1017.9 hPa | 0 mm | - | - | - |
| 1777944619 | 19.44° C | 31% | 1018 hPa | 0 mm | - | - | - |
| 1777943898 | 18.33° C | 31% | 1018.2 hPa | 0 mm | - | - | - |
| 1777942458 | 17.78° C | 33% | 1018 hPa | 0 mm | - | - | - |
| 1777941738 | 17.78° C | 34% | 1017.8 hPa | 0 mm | - | - | - |
| 1777941018 | 17.22° C | 34% | 1017.8 hPa | 0 mm | - | - | - |
| 1777940299 | 17.78° C | 37% | 1018 hPa | 0 mm | - | - | - |
| 1777939578 | 16.11° C | 36% | 1017.9 hPa | 0 mm | - | - | - |
| 1777938857 | 16.67° C | 37% | 1018.1 hPa | 0 mm | - | - | - |
| 1777938139 | 16.67° C | 38% | 1017.9 hPa | 0 mm | - | - | - |
| 1777937417 | 16.67° C | 38% | 1018.3 hPa | 0 mm | - | - | - |
| 1777936699 | 16.67° C | 38% | 1018.3 hPa | 0 mm | - | - | - |
| 1777935980 | 16.67° C | 39% | 1018.4 hPa | 0 mm | - | - | - |
* Rain latest hour (hover to see other rain measurements)
** Current wind speed in m/s (hover to see current wind gust speed)